Regional Weather Roundup
Issued by NWS

Home | Current Version | Previous Version | Graphics & Text | Print | Product List | Glossary On
Versions: 1 2 3 4 5 6 7 8 9 10 11 12 13 14 15 16 17 18 19 20 21 22 23 24 25 26 27 28 29 30 31 32 33 34 35 36 37 38 39 40 41 42 43 44 45 46 47 48 49 50
890
ASUS45 KCYS 201610
RWRWY

WYOMING REGIONAL WEATHER ROUNDUP
NATIONAL WEATHER SERVICE CHEYENNE WY
900 AM MST MON FEB 20 2017

NOTE:  "FAIR" INDICATES FEW OR NO CLOUDS BELOW 12,000 FEET
WITH NO SIGNIFICANT WEATHER AND/OR OBSTRUCTIONS TO VISIBILITY.

WYZ001-201700-
YELLOWSTONE NATIONAL PARK

CITY           SKY/WX    TMP DP  RH WIND       PRES   REMARKS
LK YELLOWSTONE   N/A     26  25  96 CALM      29.89F
W YELLOWSTONE  NOT AVBL

$$
WYZ002>013-054>058-071-098>099-201700-
NORTHERN WYOMING

CITY           SKY/WX    TMP DP  RH WIND       PRES   REMARKS
JACKSON        LGT SNOW  28  28 100 MISG      29.94F
CODY           FAIR      40  18  41 S13       29.85F WCI  32
GREYBULL       FAIR      33  26  75 CALM      29.88S
WORLAND        FAIR      34  27  75 SE6       29.87F WCI  29
SHERIDAN       FAIR      45  23  42 SE9       29.81F
BUFFALO        FAIR      44  21  40 S6        29.85S
GILLETTE       FAIR      43  31  62 SW15      29.85F
HULETT         FAIR      41  36  81 SW10      29.87R
NEWCASTLE      FAIR      41  34  75 NW9       29.90R

$$
WYZ014>020-022>026-101>103-201700-
CENTRAL WYOMING

CITY           SKY/WX    TMP DP  RH WIND       PRES   REMARKS
BIG PINEY      FAIR      16  13  88 SE3       30.02R
PINEDALE       LGT SNOW  19  19 100 CALM      30.03S
DUBOIS         FLURRIES  30  23  74 NW13G18   29.90S WCI  20
LANDER         FAIR      35  19  52 N8        29.89F WCI  29
RIVERTON       FAIR      33  20  58 SW3       29.91F
CASPER         FAIR      41  20  43 SW23      29.95S
DOUGLAS        FAIR      44  19  36 W17       29.93F

$$
WYZ021-027>030-104>119-201700-
SOUTHERN WYOMING

CITY           SKY/WX    TMP DP  RH WIND       PRES   REMARKS
EVANSTON       FAIR      29  24  82 S12       30.02R WCI  19
KEMMERER         N/A     32  28  86 S3        30.02S
FORT BRIDGER   FAIR      33  25  71 CALM      30.06R
ROCK SPRINGS   FAIR      32  26  78 E5        30.04R WCI  27
DIXON            N/A     26  24  91 CALM      30.14R
RAWLINS        FAIR      33  26  75 SW12      30.03R WCI  24
SARATOGA       FAIR      34  30  86 S10       30.06R WCI  26
LARAMIE        FAIR      38  17  42 SW15      30.00R WCI  29
CHEYENNE       FAIR      43  17  35 NW22G30   29.97R
TORRINGTON     FAIR      46  17  31 W14G20    29.92R
PINE BLUFFS    FAIR      45  19  36 NW31G40   29.96R

$$




USA.gov is the U.S. government's official web portal to all federal, state and local government web resources and services.